Terminal Aerodrome Forecast
Issued by NWS

Home | Current Version | Previous Version | Text Only | Print | Product List | Glossary Off
Versions: 1 2 3 4 5 6 7 8 9 10 11 12 13 14 15 16 17 18 19

000
FTUS43 KABR 190900 AAD
TAFMBG
TAF AMD
KMBG 190957Z 1910/2006 21011KT P6SM BKN150
     FM191200 13005KT 4SM BR OVC015
     FM191500 20006KT P6SM OVC100
     FM191800 27009KT P6SM BKN250=

USA.gov is the U.S. government's official web portal to all federal, state and local government web resources and services.